Theta_e
313 314 313 312 314 316 320 320 316 315 316 316 317 316 314 314 314 314 313 312 312 312 312 315 316 315 316 314 313 314 315 319 321 321 322 320 320 322 323 324 323 322 320 319 319 318 317 317 315 315 317 318 318 318 319 319 319 319 321 324 325 325 324 323 322 321 319 317 319 321 320 319 320 321 322 324 324 323 322 321 320 319 317 318 320 319
314 312 315 319 321 318 320 321 318 317 317 316 317 316 314 314 314 315 314 314 313 313 313 315 317 316 315 316 316 313 314 318 320 321 322 320 320 321 321 323 323 322 319 318 319 319 318 317 315 315 316 317 317 317 318 319 318 318 319 322 324 325 324 322 321 319 317 317 319 320 319 319 321 321 322 324 323 322 321 321 318 317 316 316 317 318
314 312 318 322 320 319 320 319 318 319 317 315 314 315 315 313 313 315 316 317 314 313 315 315 315 316 317 318 318 315 314 318 319 320 321 321 320 320 320 322 323 322 320 319 319 320 320 318 316 315 316 317 317 317 317 317 318 318 318 319 321 323 324 322 319 316 315 317 317 317 317 318 320 322 323 323 322 321 321 319 318 318 318 317 317 318
311 313 319 319 317 322 323 318 318 319 316 315 314 314 315 315 314 314 317 320 316 314 315 314 314 318 321 320 318 315 313 315 317 317 318 319 320 321 320 321 322 322 322 321 320 320 320 320 318 317 316 316 316 316 317 317 317 317 318 318 319 321 322 320 317 315 315 316 316 315 317 317 318 320 321 320 319 320 319 318 318 317 316 317 318 318
309 313 317 319 318 320 322 319 318 317 315 317 319 316 316 318 317 314 317 320 317 314 315 315 314 316 318 318 316 314 313 314 314 314 314 314 315 317 318 319 320 322 323 322 320 320 321 321 320 318 317 316 316 316 316 316 317 317 317 318 318 319 320 317 315 314 314 316 315 315 317 317 317 318 318 317 317 318 318 318 317 314 313 316 318 318
310 312 313 318 319 317 318 319 319 318 315 318 321 320 319 321 319 318 319 319 316 314 315 314 312 313 317 317 315 314 315 315 314 314 314 312 311 313 316 318 319 321 322 322 321 320 321 322 321 319 317 316 316 316 316 316 316 316 316 317 318 318 317 315 314 314 314 315 313 314 317 317 318 318 318 316 315 315 317 317 315 312 313 317 317 318
311 311 313 319 322 320 318 318 320 320 314 314 319 322 321 320 321 321 319 316 314 313 315 314 313 313 316 316 315 316 318 318 316 316 315 312 312 312 314 317 319 319 321 321 321 320 320 321 321 320 318 317 317 316 316 316 316 316 316 316 317 316 315 314 314 313 313 313 313 312 313 313 313 314 313 312 311 312 315 316 313 310 313 316 316 317
313 314 315 321 325 321 317 317 320 318 313 315 319 319 317 318 322 322 319 315 314 314 315 315 314 314 314 315 317 317 318 318 316 316 314 312 311 311 312 314 315 318 319 321 321 319 319 321 321 321 319 318 317 316 316 316 316 316 315 315 316 315 314 313 313 313 312 312 312 312 312 311 310 309 308 309 311 312 314 316 313 310 312 313 314 315
316 316 315 320 322 315 314 320 321 317 315 316 316 315 315 318 322 321 317 315 314 314 314 314 314 314 314 315 316 315 315 315 315 314 313 312 312 312 312 312 312 314 315 318 320 320 320 321 321 321 320 318 317 316 316 315 316 315 314 314 315 315 314 313 313 313 312 311 312 312 312 312 311 309 308 309 311 313 314 316 313 310 310 311 312 312
314 312 311 315 315 312 317 319 316 317 317 314 312 312 312 313 316 317 315 314 315 314 314 316 316 315 314 314 314 314 313 314 314 313 312 312 312 312 312 312 311 310 310 312 315 319 320 320 321 320 320 318 316 316 316 315 315 315 314 313 315 315 314 313 313 313 313 312 312 312 312 312 312 310 308 309 312 314 315 316 313 310 310 311 311 310
310 309 311 314 312 313 315 312 309 314 314 312 312 311 311 311 313 313 313 313 314 313 314 315 315 314 313 314 313 313 313 312 312 313 313 313 312 311 311 311 310 309 308 308 310 315 319 320 320 319 319 318 316 315 315 315 315 314 313 312 314 315 314 314 314 314 313 313 313 312 312 312 312 311 309 309 311 313 314 315 314 311 310 310 310 309
311 309 310 313 313 311 311 309 307 308 309 311 314 313 312 312 313 312 312 312 313 314 314 312 312 314 314 314 313 312 311 310 311 312 312 312 311 310 309 308 309 309 309 308 309 314 318 319 319 319 319 318 316 315 315 315 315 314 313 312 313 314 314 314 314 314 315 314 314 313 312 312 312 311 311 310 309 310 311 312 313 312 310 311 311 310
314 311 309 309 310 311 311 311 307 307 309 312 314 314 313 313 312 312 312 312 313 314 312 309 310 312 313 314 312 311 311 311 311 311 310 310 309 309 308 307 308 309 310 310 311 315 317 319 320 320 320 319 317 316 316 315 315 314 313 312 312 313 313 314 315 315 315 315 314 314 313 312 311 311 311 311 310 309 308 309 310 311 310 310 310 310
313 314 313 310 310 309 310 312 310 310 311 312 313 314 313 312 311 312 311 310 311 313 311 309 311 312 313 313 311 310 311 310 309 309 309 308 308 308 307 306 307 309 310 311 313 315 317 318 320 320 320 319 317 317 316 316 315 314 312 312 312 313 313 314 316 316 316 316 314 314 314 312 311 312 311 311 311 311 309 308 307 307 308 308 308 308
310 312 313 312 309 308 309 310 312 312 310 310 311 311 313 313 312 312 311 311 312 312 310 310 312 313 314 312 310 310 310 308 308 307 307 307 306 306 307 306 308 309 309 311 313 316 317 319 320 320 319 319 318 317 316 316 315 314 313 312 313 314 314 314 316 316 316 317 316 315 314 313 312 312 312 311 311 311 312 310 308 307 306 306 307 307
309 310 310 310 307 307 308 307 307 310 310 308 307 310 312 313 313 312 310 311 312 311 311 311 311 312 312 310 309 310 309 307 308 306 306 306 305 306 307 307 308 309 309 311 312 315 317 320 320 319 319 318 318 317 316 315 315 315 314 312 312 313 314 314 315 317 317 316 317 316 315 315 314 313 313 312 311 311 312 313 312 310 307 306 306 307
309 311 312 310 308 307 307 306 306 308 310 308 307 310 310 309 313 314 309 308 309 311 311 310 311 312 311 311 310 309 308 307 307 306 305 306 306 307 308 308 308 308 309 310 311 313 315 318 319 319 319 318 318 317 316 315 315 315 315 313 312 312 312 314 314 316 316 316 316 316 316 316 316 315 314 313 312 311 311 313 313 313 311 309 307 307
309 312 313 311 310 308 306 306 307 306 308 309 309 310 309 307 312 313 310 308 309 311 311 309 311 312 311 313 312 309 309 308 307 306 306 306 307 307 308 308 308 308 309 310 311 312 314 317 318 319 319 318 317 317 316 315 315 315 315 314 313 312 312 313 313 314 315 315 316 317 317 317 317 316 314 314 312 311 311 312 313 314 313 311 309 308
308 311 312 310 310 310 307 308 310 308 306 308 308 309 309 311 313 312 311 311 310 311 310 309 309 310 311 313 312 310 309 308 307 306 306 306 307 307 308 308 308 308 309 309 310 311 313 315 317 317 318 317 316 316 316 315 315 315 315 314 314 314 313 312 313 313 315 315 315 316 316 317 318 316 314 313 312 311 312 312 313 314 314 314 312 309
309 311 312 310 308 308 309 310 312 311 308 308 308 308 308 311 313 312 312 312 312 311 310 310 310 310 311 311 311 312 310 308 307 306 306 306 306 307 307 308 308 308 309 309 309 309 310 312 314 315 316 317 316 316 316 316 316 315 315 315 315 314 314 313 313 313 314 314 315 315 316 316 317 316 314 313 312 312 313 313 313 314 314 315 314 311
310 310 311 311 309 309 311 311 310 311 311 310 310 310 309 309 309 310 310 310 310 310 309 309 310 311 311 309 310 312 310 308 308 307 307 306 306 306 306 307 308 308 308 308 308 308 310 311 311 312 313 314 316 317 317 316 316 315 315 315 315 315 315 315 314 314 314 314 314 314 314 315 316 316 315 314 313 313 314 315 314 314 314 315 314 313
311 309 311 312 311 311 311 308 306 308 309 310 311 311 310 310 310 310 311 309 309 309 308 308 310 311 311 308 310 311 310 308 307 306 306 306 305 306 306 306 307 307 307 307 307 308 309 310 310 310 310 311 312 314 316 317 317 317 317 316 316 316 316 316 316 316 315 315 315 314 314 314 314 315 315 315 315 314 315 316 315 315 315 315 315 313
312 311 310 311 310 310 308 303 302 304 305 307 309 309 310 312 312 312 312 311 310 309 308 308 310 311 311 309 310 311 310 309 307 307 307 306 306 306 306 306 306 307 307 307 307 308 308 309 309 309 309 309 310 310 311 313 315 317 317 318 318 318 318 317 317 317 317 317 316 316 316 315 315 315 315 315 316 316 316 316 316 315 315 315 315 314
312 311 309 309 309 308 306 302 301 302 304 306 307 307 308 311 312 312 312 312 311 311 310 310 311 311 311 310 310 309 308 308 307 307 307 306 306 306 306 306 306 307 307 307 308 308 309 309 309 309 309 308 309 309 309 309 310 310 312 313 316 317 319 319 319 318 318 318 318 318 317 317 317 317 316 317 317 317 317 316 316 315 315 315 315 314
308 309 309 308 308 308 307 305 304 304 306 307 306 306 305 307 310 310 309 310 310 311 311 312 312 312 311 310 309 308 307 307 306 306 306 305 306 306 306 306 306 307 308 308 308 308 309 309 309 309 309 308 309 308 309 309 308 308 307 307 307 309 313 316 319 319 319 318 319 319 319 318 318 318 317 317 317 317 317 317 316 316 315 315 315 314
307 310 310 307 307 308 307 307 307 306 306 306 306 305 305 306 308 309 308 308 308 308 309 311 311 311 310 309 308 307 307 306 306 306 305 305 305 306 306 307 307 307 307 308 308 308 308 309 309 309 309 308 308 308 308 308 308 308 308 307 306 306 306 308 313 317 319 319 319 319 320 319 319 319 318 318 318 318 318 317 317 316 316 315 314 314
308 309 310 309 308 307 307 307 306 305 306 306 306 306 306 307 307 307 307 307 307 307 308 310 310 310 310 309 308 308 308 307 307 307 305 305 306 306 306 307 306 306 306 307 307 308 308 308 309 309 309 309 308 308 308 308 308 308 308 308 307 306 305 303 304 309 314 318 320 320 320 320 320 320 319 319 319 318 318 318 317 316 315 314 313 313
309 307 309 310 308 306 306 305 303 303 305 305 305 306 307 308 308 307 306 308 308 306 306 309 311 310 309 309 309 309 310 309 307 307 307 307 307 306 306 306 306 306 306 306 306 307 307 307 308 309 309 308 308 308 308 307 308 307 307 307 306 305 304 303 303 304 306 312 317 319 320 320 320 320 320 320 319 318 317 317 316 315 313 313 313 313
308 305 307 307 306 306 304 303 302 303 304 304 305 306 306 307 308 307 307 309 308 306 306 309 313 312 308 308 310 310 311 309 307 307 307 307 306 306 306 306 306 305 305 305 305 305 306 306 306 308 308 307 307 308 307 307 307 306 306 306 305 304 304 303 303 304 304 306 310 314 316 317 318 319 320 320 319 319 318 315 314 314 313 314 314 314
306 306 306 305 305 305 304 303 303 303 304 304 305 306 306 306 307 306 307 308 307 307 307 307 312 314 309 308 310 309 307 306 305 305 306 306 306 306 306 306 305 304 304 304 304 305 305 305 306 307 307 307 307 307 307 307 306 306 306 305 304 304 303 302 303 304 304 305 306 308 309 311 313 315 318 319 319 319 319 316 315 315 314 314 314 314
304 306 306 304 303 304 304 303 303 302 303 304 304 304 304 305 306 305 305 306 305 306 306 305 309 311 307 306 307 305 304 304 304 306 307 306 306 307 306 305 304 303 303 304 304 304 304 305 306 306 306 306 306 306 306 306 306 305 305 305 305 304 304 303 303 304 304 305 305 305 306 307 309 311 314 317 318 319 319 317 316 316 314 313 313 313
303 304 304 303 303 304 303 303 303 303 303 303 303 303 303 304 305 304 304 305 305 306 306 305 306 307 305 305 304 303 303 304 305 307 308 306 306 306 305 304 303 303 303 303 304 304 304 304 306 306 306 306 306 305 306 305 305 305 305 305 304 304 304 304 304 305 305 306 306 306 306 307 307 309 311 314 316 317 317 317 316 315 314 313 313 313
303 302 302 303 302 302 302 303 303 302 302 303 303 304 305 305 305 304 305 306 306 306 306 305 305 305 304 304 303 304 304 304 306 307 307 306 306 306 304 303 303 303 304 304 304 304 304 305 305 306 306 305 305 305 305 305 304 304 304 304 304 304 304 305 305 305 306 306 307 307 306 306 307 308 310 312 314 315 316 315 315 314 314 313 312 312
303 302 302 302 301 301 301 301 301 302 303 303 302 302 303 304 304 304 305 305 305 305 304 303 303 303 302 302 304 306 305 305 305 305 304 305 306 306 304 303 303 303 304 305 304 304 305 305 305 305 305 304 304 304 304 304 304 303 303 303 303 304 304 305 305 306 306 306 306 306 307 307 308 309 310 311 312 314 314 314 314 314 314 313 312 311
302 301 301 301 300 300 299 299 301 303 303 302 302 301 301 301 302 303 303 304 303 303 303 302 302 303 303 304 305 305 304 304 303 302 303 303 304 305 304 303 303 303 303 304 304 304 305 305 305 305 305 304 304 304 304 303 303 303 303 303 303 304 305 305 305 306 306 306 306 306 307 308 308 309 310 311 311 312 313 313 314 314 314 312 311 311
301 301 300 299 299 299 299 300 302 302 301 301 302 303 303 302 302 302 303 303 302 302 303 304 304 304 304 304 303 302 303 304 302 301 301 301 303 305 304 303 303 303 303 303 304 305 305 304 304 304 304 304 303 303 304 304 303 303 303 303 304 304 305 305 305 306 306 306 306 307 307 308 309 309 310 310 311 311 312 313 313 313 313 312 310 310
301 300 299 299 299 298 298 299 300 301 300 301 303 304 303 303 304 303 302 302 301 301 302 303 303 303 304 304 303 302 302 303 302 301 300 300 302 303 303 303 303 303 303 303 303 304 304 303 303 303 303 303 303 303 303 303 302 302 303 303 304 305 305 305 305 306 306 306 307 307 307 308 308 309 310 310 310 311 312 312 312 313 312 311 309 308
299 300 300 300 299 298 298 299 300 301 301 301 302 303 302 302 303 302 301 302 301 300 301 301 301 301 302 302 302 303 303 303 302 302 301 300 301 301 302 302 303 302 302 303 303 303 303 303 302 302 302 303 303 303 303 302 302 302 303 304 304 305 305 305 306 306 306 306 307 307 307 307 308 308 309 310 310 310 311 311 312 312 311 310 308 307
299 298 298 299 299 298 299 300 300 300 301 302 302 302 302 302 301 301 302 303 301 299 299 300 301 301 301 301 301 303 303 302 302 302 301 300 299 300 301 301 302 302 302 302 303 303 303 302 302 302 302 302 303 303 303 302 302 302 303 304 304 305 305 306 306 306 306 306 306 307 307 307 307 308 308 309 310 310 311 311 311 310 309 308 306 305
299 298 298 299 300 299 299 300 299 299 300 302 302 302 302 300 300 302 304 303 300 298 300 300 300 301 301 300 301 302 302 302 302 301 301 300 299 300 301 301 302 303 302 302 302 301 301 301 301 302 302 303 303 303 302 302 302 302 303 304 304 305 305 306 306 306 306 306 306 307 307 307 307 307 307 308 309 310 310 310 309 308 307 305 304 302
298 297 297 298 299 299 299 300 299 299 300 302 302 302 301 300 302 304 304 300 297 298 300 301 301 302 303 301 301 301 301 301 301 300 301 300 299 300 301 301 301 301 301 301 301 300 301 301 301 301 302 302 302 302 302 302 302 303 303 304 304 305 305 305 305 305 306 306 306 306 306 306 307 307 307 308 309 309 309 309 308 307 305 303 302 301
297 297 297 297 298 298 298 299 299 299 300 301 301 301 301 300 302 302 299 297 297 298 300 302 302 303 303 301 301 301 300 300 300 300 299 299 299 300 301 301 301 301 301 301 300 300 300 301 301 301 301 301 302 302 301 302 302 303 303 304 304 305 305 305 305 305 306 306 306 306 306 306 306 306 307 307 308 307 307 306 306 304 303 302 302 301
298 297 297 296 296 296 297 298 299 299 300 300 299 299 300 299 299 298 297 297 298 298 299 301 301 301 301 300 300 301 300 299 299 299 299 299 299 300 300 300 300 301 301 301 300 300 300 301 301 301 301 301 301 301 301 302 302 303 303 303 304 304 305 305 305 305 306 306 306 306 305 305 305 306 306 307 307 306 305 304 303 303 302 302 300 298
297 297 297 296 296 296 297 298 299 298 299 299 297 297 298 298 297 297 296 297 297 298 299 300 300 300 300 299 299 299 299 299 299 299 299 299 299 299 300 300 300 301 301 301 301 300 300 301 301 301 301 301 301 301 301 302 302 303 303 303 304 304 304 305 305 305 305 305 305 305 304 304 305 306 306 305 304 304 303 302 302 301 300 299 298 297
296 296 296 296 296 297 297 297 297 297 297 297 296 297 298 298 297 297 296 296 297 298 298 298 298 298 298 298 298 298 298 298 299 299 299 299 299 299 300 300 300 300 301 301 301 300 300 300 301 301 301 301 301 302 302 302 302 303 303 304 304 304 305 305 305 304 304 304 304 304 304 304 304 304 304 304 303 302 301 300 299 298 297 297 296 296
295 295 295 296 296 296 296 296 296 296 296 296 296 296 297 297 296 296 296 296 297 297 297 297 297 297 297 297 297 297 298 298 298 298 298 298 298 299 300 301 301 301 301 301 301 300 300 301 301 301 301 302 302 302 302 302 303 303 304 304 304 304 304 304 304 304 303 303 303 304 304 303 303 302 302 301 301 300 299 298 297 296 296 295 295 296
295 294 295 296 296 296 296 296 295 296 296 296 296 296 296 296 296 296 295 296 296 296 296 296 296 296 296 296 296 296 297 297 297 297 297 298 298 299 300 301 301 301 301 301 301 300 300 300 301 301 302 302 302 302 302 302 303 303 303 303 303 303 303 303 302 303 303 303 303 303 302 301 300 299 299 298 298 297 297 296 296 296 295 295 295 296
295 294 295 295 295 295 295 296 296 296 296 296 295 295 295 295 295 295 295 295 295 295 295 296 296 295 295 295 296 296 296 296 297 297 297 298 298 298 299 300 300 300 300 300 300 300 300 300 301 301 301 302 302 302 302 303 303 302 301 301 301 301 302 302 302 302 302 302 301 300 299 298 298 297 297 297 296 295 295 295 295 295 296 296 295 294
295 295 295 295 295 295 295 295 295 295 295 295 295 295 295 295 295 295 295 295 295 295 295 295 295 295 295 295 295 295 296 296 297 297 297 298 298 299 300 300 300 300 300 300 300 300 300 300 300 301 301 302 302 302 302 302 301 300 299 300 300 301 301 301 301 301 300 299 298 298 297 297 296 296 295 295 295 295 295 296 296 296 296 295 294 293
295 295 295 295 294 295 294 295 295 295 295 295 295 295 295 295 295 294 295 295 295 295 294 295 295 295 296 296 295 295 295 296 297 297 298 298 298 299 300 300 300 300 300 300 300 300 300 300 300 301 301 302 302 302 302 301 299 298 298 299 299 299 299 299 298 298 298 297 297 297 296 296 296 296 295 296 296 296 295 295 295 295 294 293 293 293
295 294 295 294 294 294 294 294 295 295 294 295 295 295 295 295 294 294 294 295 295 295 295 294 294 294 295 296 296 296 295 296 297 298 298 298 299 299 299 299 299 299 299 299 299 300 300 300 300 301 301 301 302 302 301 299 298 298 298 298 298 298 298 297 297 297 297 296 296 296 296 296 296 296 296 296 296 295 294 293 293 293 293 293 293 293
Wind_Speed
0 1 1 2 2 2 2 1 1 3 3 2 2 2 1 1 1 1 1 2 2 1 1 1 2 3 6 5 1 2 3 6 7 6 6 7 7 8 9 9 9 8 6 5 6 10 16 17 17 18 19 21 21 21 21 21 20 19 19 19 20 20 19 18 17 16 13 11 10 9 8 7 7 8 7 6 5 5 4 3 3 3 4 3 4 5
0 0 1 4 3 1 1 3 4 4 3 2 2 2 2 2 2 0 0 2 2 1 1 1 2 2 4 5 1 2 4 8 9 9 8 9 9 8 10 11 9 6 4 5 7 9 14 16 17 19 19 22 22 22 22 21 21 20 19 20 21 21 20 19 17 15 13 12 12 11 10 9 10 9 8 7 6 5 4 3 3 4 5 5 6 7
0 2 3 3 2 3 4 4 4 3 3 2 2 2 1 1 2 1 0 1 2 1 0 1 3 3 3 4 3 2 5 5 5 8 8 9 11 9 10 10 9 7 6 8 8 9 13 16 18 19 20 23 24 24 24 22 22 21 21 21 21 22 22 19 16 13 12 11 11 10 10 10 10 10 8 7 6 5 4 3 4 4 5 6 7 8
0 1 1 2 4 4 4 3 4 4 2 2 2 2 1 0 2 1 1 2 2 2 1 0 3 4 1 2 3 1 3 3 2 5 6 6 8 9 9 8 9 10 10 10 10 9 11 14 18 20 22 24 24 24 25 24 24 23 23 23 23 23 22 20 17 14 12 12 10 9 9 9 9 9 8 6 6 6 5 4 3 3 4 6 7 8
2 1 3 4 4 3 3 3 4 3 2 1 2 3 2 1 2 2 1 2 1 1 2 1 3 2 0 1 2 1 2 3 2 2 4 4 5 4 5 7 9 11 11 11 11 11 12 14 18 20 23 25 25 26 28 28 27 25 25 25 24 24 23 21 19 16 14 13 12 11 10 9 8 8 8 7 8 7 6 4 3 4 6 7 8 8
2 0 3 4 2 2 3 3 4 4 2 2 4 7 5 3 3 2 1 1 1 0 3 3 4 1 1 0 3 1 3 3 2 2 1 1 3 5 7 10 10 10 10 11 12 12 13 15 16 18 23 26 27 29 31 30 28 27 26 26 26 25 24 22 20 18 16 15 14 13 13 11 9 9 9 9 9 8 7 5 4 5 8 8 8 9
1 1 2 2 3 3 2 1 4 5 3 1 3 5 5 3 3 3 1 1 2 2 2 2 3 3 1 1 2 1 3 3 1 2 3 2 2 5 8 9 9 10 10 10 11 12 13 14 15 17 22 28 30 31 32 31 29 29 28 28 27 26 25 24 22 20 18 17 16 15 15 14 12 11 11 10 9 8 7 6 5 7 8 8 7 7
2 2 2 2 3 2 1 1 3 6 4 1 0 4 7 5 4 4 2 1 1 2 1 1 1 3 4 0 1 1 3 3 1 3 2 2 2 4 6 8 9 11 11 10 11 13 14 15 18 20 23 29 31 31 32 32 31 31 30 29 28 27 26 25 25 23 21 19 18 17 16 15 14 12 11 10 10 9 8 7 6 7 8 8 8 7
2 2 1 2 1 1 2 0 5 8 3 1 1 3 5 4 3 3 2 1 1 2 3 1 1 3 4 0 1 1 3 2 3 5 5 4 4 5 5 7 9 10 11 11 12 13 14 16 19 19 20 25 28 29 32 33 33 32 30 29 29 29 28 27 27 26 23 21 19 18 18 17 16 13 11 11 12 11 10 9 8 7 8 9 9 9
1 2 2 3 2 2 1 1 4 7 2 1 4 5 6 5 5 3 1 2 2 2 5 2 1 3 4 1 1 1 0 1 3 4 5 5 6 6 6 7 8 8 9 11 12 11 12 13 14 14 15 21 25 28 31 32 32 32 30 30 31 30 30 29 29 28 26 23 21 20 19 19 18 15 12 12 13 12 11 10 9 9 9 9 9 10
2 1 1 2 2 1 3 3 1 1 3 4 4 4 6 4 3 2 2 1 1 3 5 1 1 3 4 1 1 1 1 2 4 4 5 6 8 8 8 9 8 8 8 8 9 9 11 11 12 14 16 20 23 25 28 30 32 32 32 32 33 32 32 31 31 29 27 25 24 22 20 20 19 17 14 14 15 14 13 12 11 10 10 10 10 11
2 1 1 2 1 2 3 4 2 2 3 3 1 2 3 1 1 1 1 1 3 4 1 3 2 3 5 2 1 1 2 3 4 4 5 8 10 10 10 10 10 9 8 7 7 8 10 11 13 16 17 18 21 24 28 31 33 33 33 33 33 34 33 33 32 31 29 27 25 24 22 21 21 19 17 16 17 16 15 14 13 12 12 12 12 11
3 1 1 2 1 2 2 3 3 1 2 2 2 2 2 1 1 1 1 1 4 3 1 3 1 2 5 4 1 1 1 2 2 3 4 7 10 10 11 11 10 8 7 5 4 6 8 8 11 14 16 17 20 25 28 30 32 33 33 33 34 35 35 34 34 32 31 29 27 26 24 23 22 22 19 18 18 17 16 15 15 14 14 14 14 13
3 1 1 1 1 1 2 3 2 2 3 4 3 3 3 2 1 2 2 1 4 2 2 1 1 1 3 2 1 1 1 2 2 3 4 6 8 9 10 9 8 7 7 4 3 4 6 6 8 11 14 15 17 21 25 28 30 31 30 31 33 34 35 35 34 33 32 31 29 27 26 24 23 23 22 20 19 18 17 16 16 16 16 16 15 15
2 2 1 0 0 1 1 2 1 2 3 2 1 1 3 3 2 3 3 3 4 0 2 1 2 2 2 1 2 2 2 2 3 4 5 5 6 7 7 7 7 7 7 4 0 2 4 5 7 9 11 12 14 17 21 25 28 29 29 29 30 31 32 33 33 33 33 32 31 29 27 26 25 24 23 22 20 19 18 17 17 17 16 16 15 14
2 3 2 2 2 1 1 0 1 2 3 1 0 1 2 2 2 1 1 1 2 0 1 2 2 2 1 1 1 1 1 3 4 5 5 6 6 6 6 6 7 8 8 6 4 2 2 5 7 7 9 10 13 16 21 25 26 28 27 27 28 29 30 32 33 34 33 33 32 30 29 28 27 26 25 24 22 20 19 18 17 17 16 16 15 14
1 2 1 2 1 1 1 1 1 1 1 2 2 3 1 1 3 2 0 2 1 3 2 1 2 2 1 1 2 2 2 3 4 4 5 6 6 6 6 7 8 9 9 8 6 5 3 3 6 8 9 11 12 16 21 24 26 28 27 26 27 29 30 31 32 33 33 33 32 31 30 29 28 28 27 26 24 22 20 19 18 17 17 16 15 15
2 2 1 1 1 1 1 1 3 2 0 2 2 3 3 1 2 2 1 1 0 4 2 1 3 3 3 2 4 5 3 2 2 4 4 4 5 6 6 7 8 9 8 8 9 8 7 5 3 5 9 11 13 15 18 21 24 26 27 28 27 27 28 29 30 31 32 32 32 32 31 30 29 29 28 27 26 23 22 21 20 19 18 17 16 16
1 3 1 0 1 2 2 1 2 3 2 1 0 2 2 3 2 1 2 1 2 3 1 1 2 2 4 3 5 8 7 4 1 2 3 4 5 5 5 7 9 9 8 9 10 10 9 9 7 3 4 9 11 13 14 17 19 21 25 27 26 26 26 27 27 28 29 30 31 31 31 31 30 29 29 28 27 25 24 24 23 21 20 19 17 17
0 2 1 1 1 3 2 1 2 1 3 2 1 1 1 2 2 1 1 1 3 3 1 1 1 2 4 2 4 9 8 5 3 2 1 2 3 4 4 6 7 8 8 8 9 10 10 12 13 9 4 5 8 9 11 13 16 19 21 23 25 25 25 26 26 26 27 28 29 29 30 30 30 30 30 29 29 28 27 26 25 24 22 20 19 18
0 1 2 1 1 3 1 1 2 0 2 1 2 2 1 1 0 1 1 1 1 2 2 2 3 2 1 1 4 8 9 6 4 3 1 0 2 3 4 5 6 7 7 8 8 9 10 13 16 15 13 11 7 3 7 11 13 16 18 19 21 23 24 25 26 27 27 28 28 28 28 29 30 30 30 30 31 30 29 28 27 26 24 22 21 20
0 1 2 2 2 3 1 1 1 1 0 0 1 2 1 2 2 3 3 1 0 2 2 2 3 2 2 1 3 5 7 5 3 2 2 1 2 3 4 5 5 6 7 8 8 8 10 12 15 17 19 19 17 11 6 2 4 7 10 12 15 18 21 23 24 26 27 28 28 28 30 31 31 31 31 31 32 32 32 31 30 29 26 24 23 21
1 1 1 3 4 3 2 1 1 2 1 0 1 0 1 1 2 4 4 2 2 1 1 1 2 1 1 0 1 2 3 3 2 3 3 1 3 3 4 4 5 6 6 6 6 7 9 11 13 15 17 18 18 18 17 14 11 8 3 2 6 10 14 17 20 22 24 26 27 28 30 31 32 32 32 32 32 34 34 33 32 31 29 26 25 23
1 1 1 2 2 3 2 1 1 1 2 1 0 1 1 1 0 2 2 1 2 3 3 2 3 2 1 1 0 1 1 1 2 4 3 0 3 3 4 4 5 5 5 6 6 6 8 10 12 14 14 15 15 17 18 18 18 18 17 13 9 4 4 10 15 17 19 22 25 27 28 30 31 32 31 31 32 33 34 33 32 32 30 28 26 25
1 1 1 2 2 3 2 2 2 2 1 1 0 1 0 1 3 1 1 1 3 3 3 4 4 2 2 1 0 1 0 1 2 2 2 0 2 3 4 4 4 4 5 7 7 7 8 10 11 12 12 12 13 14 15 16 17 18 20 21 19 16 11 5 5 10 14 18 21 24 26 28 29 30 29 29 30 32 33 33 31 31 30 28 27 26
2 1 2 3 4 4 4 4 3 1 0 0 0 1 1 2 3 1 1 2 3 2 3 4 2 1 2 2 3 2 0 1 4 3 2 2 2 2 3 4 4 5 6 7 7 7 8 8 8 10 10 10 11 12 12 13 14 14 15 17 18 18 17 14 10 4 6 12 16 20 23 26 27 28 28 29 30 31 32 31 31 31 30 28 27 26
1 1 2 4 6 6 6 4 1 1 2 2 1 2 2 1 1 1 1 3 3 2 3 4 1 1 5 7 8 6 2 3 5 4 4 4 3 2 3 3 4 4 4 5 5 6 6 7 8 9 10 10 11 11 11 11 12 12 13 13 15 16 18 18 16 12 7 5 10 15 18 22 25 27 28 28 29 30 30 31 32 30 27 26 25 24
1 1 1 3 5 5 4 3 1 1 4 4 3 4 3 2 2 3 4 3 3 2 5 4 3 4 6 7 9 8 6 5 6 5 4 5 4 4 4 4 4 4 4 4 5 6 6 6 7 8 9 10 10 10 11 11 11 13 13 13 15 17 19 19 18 16 12 7 5 9 13 17 20 22 25 26 27 26 27 28 27 24 21 20 21 22
1 2 2 2 4 3 2 3 2 3 4 4 4 6 5 4 4 6 7 4 5 7 6 5 8 8 6 5 7 7 6 6 5 4 3 4 5 5 5 4 4 4 3 4 5 5 6 6 6 7 8 9 10 11 11 11 12 14 15 16 17 18 18 19 18 16 14 11 8 7 9 12 14 17 19 22 24 25 25 24 22 20 20 20 20 23
1 2 2 2 3 3 4 3 2 4 4 4 6 7 6 6 7 8 8 5 6 9 4 2 7 9 5 5 5 2 1 2 1 1 3 4 5 6 6 5 4 3 3 4 4 4 4 5 5 7 8 9 10 10 11 11 12 14 15 16 18 18 18 19 18 17 15 14 12 11 10 10 12 13 15 18 21 23 24 24 23 23 24 24 24 25
1 1 2 2 3 4 3 3 4 6 6 8 9 6 5 7 8 7 6 3 4 7 4 3 7 7 4 5 4 1 2 1 2 4 5 5 5 6 6 5 4 3 3 3 3 3 3 3 3 5 7 8 9 9 10 11 12 14 14 15 15 16 17 18 18 17 16 14 14 14 13 13 12 12 13 14 17 20 23 24 25 25 25 24 24 27
1 1 1 1 4 5 4 7 8 6 6 10 9 7 8 10 7 5 5 5 6 8 7 7 7 6 4 4 5 3 3 4 5 5 5 4 4 6 5 5 3 3 3 3 3 3 3 3 3 4 5 6 7 8 10 12 14 14 15 15 15 16 17 17 17 16 14 14 13 13 13 14 14 14 13 13 15 19 21 22 24 25 24 25 26 29
1 2 1 2 4 4 3 4 4 4 6 9 6 6 11 11 9 7 6 6 8 8 7 6 5 3 2 3 5 4 4 4 4 4 4 4 4 4 4 4 2 2 2 2 3 4 4 4 4 4 5 6 6 7 9 12 14 16 17 18 18 18 18 16 15 15 14 13 13 12 13 13 14 15 14 13 14 17 19 21 22 23 25 27 28 30
1 2 2 2 3 3 0 2 2 4 7 4 1 2 7 8 9 10 7 4 4 4 4 4 3 2 1 2 3 2 3 2 1 1 1 2 4 4 3 2 1 0 1 2 3 4 5 5 5 6 8 9 9 10 12 14 16 18 19 20 20 19 18 16 15 14 14 15 15 15 14 13 14 15 15 14 13 14 17 20 22 24 26 28 29 31
2 3 2 1 2 2 1 2 3 6 5 2 2 1 4 5 6 7 3 3 3 3 4 4 4 2 1 2 2 3 2 1 1 2 2 3 4 4 4 3 2 0 2 4 4 5 6 7 8 8 9 10 11 12 13 15 16 16 16 17 17 17 18 17 15 15 15 16 18 17 16 14 14 15 15 14 13 13 16 19 22 25 26 28 29 32
4 3 2 1 2 1 1 3 4 3 4 5 3 1 2 2 2 2 2 4 5 4 3 2 2 1 1 1 2 1 1 2 1 1 2 3 4 4 4 2 1 2 3 4 5 7 8 9 10 12 13 14 13 13 14 16 17 16 14 15 15 16 16 16 16 16 17 18 17 17 16 15 15 15 16 15 13 13 16 18 21 25 26 27 29 32
4 3 2 3 3 2 2 4 3 4 6 5 2 2 1 1 1 1 1 3 5 4 2 3 5 5 4 3 3 1 2 1 1 4 3 2 2 3 4 4 3 4 5 6 7 9 12 13 14 15 16 16 16 16 17 19 20 18 15 14 15 16 15 15 16 17 17 17 16 15 15 15 15 16 16 15 14 14 16 18 21 25 27 27 29 31
3 1 2 3 2 2 2 4 3 4 4 2 1 1 1 2 1 2 2 2 3 4 3 4 6 6 5 5 5 3 2 1 2 3 4 4 3 1 3 4 5 6 7 8 10 12 14 15 15 16 16 16 17 19 19 21 21 18 15 14 15 16 16 15 16 17 17 16 16 16 16 16 16 16 17 17 15 15 17 17 19 24 27 27 28 29
3 1 1 3 2 2 3 4 3 3 2 1 1 2 2 2 2 2 3 2 2 3 3 3 5 6 5 4 4 3 2 1 2 1 4 6 5 4 5 7 8 9 10 11 12 13 15 16 17 17 17 17 18 20 20 21 22 19 16 15 16 16 16 17 18 17 17 18 18 18 18 17 18 17 17 17 17 16 17 16 17 22 25 25 25 25
3 2 1 3 3 2 3 3 3 3 2 1 3 3 1 2 3 3 5 2 2 4 4 3 5 6 4 2 1 1 2 2 3 5 6 5 4 5 7 9 10 11 12 12 13 15 17 17 17 17 17 18 19 21 21 22 21 18 16 17 17 17 17 19 19 19 19 20 19 18 18 18 18 18 19 19 18 16 16 17 19 22 22 22 23 23
1 1 1 2 3 3 4 4 3 2 1 1 3 2 1 2 3 4 4 1 3 6 4 1 3 4 2 2 2 1 3 4 4 7 8 6 6 7 8 10 11 13 14 14 15 16 16 15 16 17 18 20 21 21 22 22 20 17 17 17 17 17 19 21 22 22 22 21 20 19 19 19 18 19 20 19 17 17 17 19 21 22 23 24 25 25
0 0 0 1 1 1 2 3 3 3 1 1 2 1 1 2 2 2 3 2 4 7 5 2 3 3 3 4 4 4 5 6 6 7 8 8 8 8 9 9 10 12 15 16 16 17 15 14 15 17 19 21 21 21 22 21 19 17 18 18 19 21 22 23 23 23 22 21 20 20 20 20 20 20 19 16 16 17 18 19 21 23 25 28 29 29
0 1 2 2 1 1 2 2 3 2 1 2 4 3 0 1 2 2 4 4 4 6 6 5 4 3 3 5 6 6 7 7 7 7 7 8 8 8 10 11 11 12 14 14 15 16 14 14 14 15 17 20 20 21 21 20 18 17 18 20 22 24 23 23 23 23 22 22 22 21 21 21 20 19 16 15 16 18 19 21 23 26 30 32 33 31
1 1 2 1 1 1 2 2 1 1 2 3 5 5 3 2 1 2 4 6 5 5 5 5 3 2 3 4 7 7 7 7 8 8 7 8 9 9 10 12 13 14 14 14 15 16 15 14 14 15 16 18 20 20 19 18 17 17 20 23 24 24 24 24 23 23 23 23 23 22 21 19 17 15 15 16 18 20 22 25 28 30 32 32 31 28
1 0 2 3 2 2 4 4 4 4 2 1 3 5 6 5 5 5 6 7 6 5 4 4 6 6 4 5 7 7 7 8 9 9 9 9 10 10 11 13 14 15 15 15 16 17 16 14 13 14 15 17 20 20 19 17 16 19 22 24 24 24 24 24 24 24 24 23 22 21 18 15 13 13 17 20 22 25 27 30 32 32 31 30 28 26
1 1 1 3 3 4 5 4 4 6 6 5 4 4 5 7 8 8 7 6 6 6 5 5 7 7 7 7 7 7 8 9 9 10 10 10 11 12 12 13 14 16 16 16 17 19 17 14 13 14 14 16 18 19 18 17 17 20 24 24 24 25 25 24 24 23 23 22 19 16 12 11 12 15 19 23 26 30 32 32 32 30 29 28 26 23
1 1 2 4 4 4 4 3 4 7 9 9 8 7 7 7 7 6 5 5 6 7 8 7 7 7 7 7 8 9 10 10 10 11 10 10 11 12 12 14 15 16 17 18 19 20 17 13 14 15 15 16 17 17 17 17 18 20 23 23 23 23 23 22 23 23 22 19 13 10 13 17 20 23 25 28 30 31 30 30 30 29 27 26 25 22
0 1 3 4 4 5 6 7 9 11 11 9 8 7 6 7 8 7 6 7 8 8 9 9 8 8 7 8 9 10 10 10 10 11 10 10 10 10 12 14 16 17 18 19 19 18 15 14 15 16 16 16 16 15 16 18 18 17 17 18 19 20 21 22 21 18 14 10 12 17 21 25 28 30 30 31 31 29 28 28 28 27 25 24 23 22
1 3 4 3 5 7 8 8 9 10 10 9 9 7 6 7 9 10 9 9 10 10 11 11 11 10 10 10 10 10 11 11 10 10 11 10 10 11 13 16 18 18 18 18 17 16 15 16 16 16 16 16 16 15 16 14 11 9 9 12 14 14 12 9 8 9 13 19 23 24 26 27 28 27 28 29 29 26 24 25 24 24 23 21 19 18
2 6 5 4 6 7 7 8 10 10 10 10 12 14 11 8 9 11 12 12 12 12 12 12 13 13 12 12 11 10 10 10 10 11 12 11 11 14 17 18 19 19 18 18 18 17 17 17 16 16 16 16 15 14 12 6 2 4 7 7 5 1 8 16 21 22 23 25 25 25 25 26 26 26 26 27 26 24 23 23 22 22 23 21 19 18
2 5 5 5 7 8 10 12 11 10 10 11 13 16 14 10 10 12 13 14 15 14 12 11 12 13 12 12 12 10 9 11 12 13 12 12 14 17 18 19 19 19 19 18 17 17 17 16 15 15 15 15 15 12 5 4 6 7 9 11 12 15 20 25 28 27 25 24 24 25 25 26 27 27 26 26 26 25 25 24 23 22 22 21 19 16
Wind_Direction
331 146 168 221 243 264 217 184 110 129 138 113 126 179 178 208 240 263 275 12 1 275 90 69 302 289 284 293 242 185 169 187 198 195 198 202 204 210 216 221 220 220 211 180 181 196 203 204 198 197 197 194 191 190 188 187 187 185 185 186 187 187 186 186 184 181 183 179 176 175 169 163 161 165 166 157 144 128 116 101 83 71 68 66 68 70
356 117 220 234 233 228 166 147 121 114 131 141 167 185 192 220 233 31 335 1 1 280 70 75 284 272 267 277 259 150 197 202 200 200 200 199 205 211 217 223 223 220 204 191 191 188 196 198 196 197 197 195 194 192 190 189 188 185 185 188 190 190 189 192 191 187 188 183 178 178 175 169 165 166 166 162 154 141 134 116 91 79 73 71 73 73
15 246 246 236 168 99 82 122 132 119 133 146 166 194 203 221 275 295 200 359 354 302 296 76 302 281 259 281 284 201 211 221 210 211 212 201 201 208 215 221 219 216 210 207 202 187 189 191 192 196 197 197 196 193 192 191 188 186 186 189 191 193 192 193 194 193 190 180 179 184 180 174 168 167 167 165 160 151 145 122 96 81 74 77 79 78
222 226 212 138 140 123 85 109 128 117 131 159 163 199 213 76 286 248 139 351 1 9 352 220 291 283 262 280 278 261 243 271 277 228 229 220 213 212 217 225 219 215 212 208 205 193 188 187 190 195 196 197 196 193 193 191 187 187 189 190 191 193 192 192 193 193 189 178 178 185 182 179 173 167 166 164 159 154 146 129 101 70 78 89 90 87
249 132 114 116 140 152 122 132 155 153 163 195 194 216 223 196 228 248 322 318 302 93 52 312 269 260 35 182 185 34 316 276 286 233 219 220 235 245 246 245 231 222 218 210 205 196 190 192 193 194 195 195 196 195 195 192 189 189 193 193 191 192 191 191 192 191 188 180 178 177 177 179 171 162 163 161 158 156 148 133 100 69 93 106 103 100
281 55 144 138 132 160 151 166 199 190 184 216 216 219 214 192 193 211 309 311 259 193 52 353 286 237 40 146 166 34 326 273 307 333 313 181 200 227 237 236 233 231 228 218 211 202 197 197 193 189 192 195 197 198 197 194 191 193 197 195 192 191 190 190 192 192 190 185 182 180 178 178 174 169 172 171 164 159 153 134 99 88 106 118 113 106
332 77 146 141 125 147 166 213 212 187 173 216 222 197 180 161 158 160 192 240 295 309 44 356 292 274 303 112 133 12 306 268 295 359 336 338 197 214 229 233 232 232 230 223 217 209 203 198 190 189 193 196 199 199 197 194 192 195 199 196 193 192 190 190 192 193 192 188 189 190 190 192 191 187 185 179 168 160 157 145 115 101 111 123 124 117
164 123 74 81 105 136 193 257 192 177 169 178 150 151 153 156 162 159 176 212 298 309 309 56 340 281 273 164 122 306 291 276 42 49 340 304 265 242 243 243 240 238 232 224 219 212 205 198 194 195 194 197 201 199 196 194 193 196 199 197 195 194 191 191 193 195 193 189 191 195 199 203 203 201 192 180 173 168 164 157 138 119 115 119 123 126
170 185 173 162 136 219 244 150 168 178 182 359 90 123 130 131 127 133 152 149 67 286 253 156 107 265 264 210 170 226 263 264 45 15 330 314 297 279 267 261 258 256 249 237 228 218 207 201 199 195 192 197 201 198 197 196 194 197 199 198 197 196 194 193 194 196 196 193 195 198 203 207 210 211 200 185 181 178 172 166 156 141 129 121 117 118
220 240 203 178 221 251 263 44 171 182 176 107 132 103 84 76 72 79 121 132 106 262 256 226 115 263 269 271 245 234 247 296 358 338 313 312 313 309 304 292 280 274 268 252 242 229 215 206 198 192 188 196 201 199 198 198 195 197 199 199 199 198 196 196 195 197 199 199 200 203 208 212 213 214 206 191 186 184 180 176 168 160 150 137 128 124
291 282 192 193 239 186 103 70 43 148 115 144 150 99 84 70 59 67 47 69 166 239 252 314 67 249 268 290 251 337 17 296 300 306 309 319 325 327 322 317 309 296 286 266 247 225 210 199 188 186 188 194 199 198 197 198 197 198 200 201 200 200 200 199 197 199 202 203 205 207 211 216 217 217 210 198 192 189 186 184 179 175 168 156 147 142
326 177 196 260 230 133 115 90 47 51 114 147 161 112 118 75 65 112 64 94 230 243 270 26 43 216 244 248 112 41 309 273 266 279 309 322 327 329 325 325 324 314 304 280 243 209 191 178 173 179 183 187 191 193 196 199 198 199 202 202 201 202 202 201 200 201 204 206 209 211 212 217 220 221 216 207 203 199 194 192 188 183 179 172 165 160
311 212 275 299 182 147 158 119 94 97 154 177 162 147 209 243 117 222 244 191 236 255 39 35 22 206 241 262 39 44 299 295 269 268 302 317 317 322 326 329 330 328 323 296 237 196 180 169 168 175 177 178 184 190 195 198 199 200 202 202 201 202 203 203 203 203 205 208 211 214 215 216 220 223 222 217 213 210 204 200 196 190 188 184 179 176
299 270 6 295 131 74 216 191 177 185 187 197 179 173 223 220 162 229 220 236 260 269 47 35 307 253 245 266 24 15 324 338 324 312 322 317 312 317 323 328 337 347 346 318 227 180 173 170 168 172 173 174 180 187 192 196 200 202 204 204 203 204 204 204 205 206 207 210 213 216 218 218 220 224 226 225 222 219 215 209 205 201 199 196 191 187
287 276 18 335 339 12 257 224 212 123 156 195 171 164 212 201 212 245 225 241 260 272 69 136 209 233 230 55 8 319 340 357 357 353 337 325 324 320 316 329 354 9 9 356 327 147 153 159 162 168 171 173 177 182 189 196 201 203 206 207 206 206 206 207 208 209 210 212 214 218 221 222 223 225 229 231 231 228 224 219 215 212 209 207 203 195
268 267 291 307 282 314 342 200 115 120 141 130 41 172 213 202 185 241 296 293 291 256 153 193 223 258 274 11 359 324 44 37 12 359 350 345 342 334 333 354 11 17 20 17 21 51 108 143 154 161 167 172 175 183 192 198 202 205 207 209 209 209 209 210 211 212 213 215 216 219 222 225 227 228 231 233 235 235 233 229 224 220 217 215 211 202
222 263 308 304 285 48 351 219 128 290 176 135 188 189 153 89 125 128 97 48 12 250 211 173 229 233 217 201 131 119 88 53 18 4 3 350 345 355 0 6 16 19 19 22 27 30 42 108 146 156 166 174 179 186 195 200 203 206 208 211 213 213 213 215 215 215 216 217 218 220 223 227 230 231 232 234 237 240 240 237 232 228 224 221 217 207
243 257 331 317 163 80 296 201 80 32 342 156 196 160 124 112 97 117 213 69 117 245 226 168 228 211 204 202 148 153 157 103 26 6 5 357 7 21 14 12 25 25 20 26 36 39 38 47 99 150 166 177 186 191 196 203 206 208 211 213 215 216 217 218 219 219 219 220 220 221 223 227 231 233 235 236 239 242 244 242 237 234 230 226 221 211
263 266 324 18 250 343 346 222 119 62 34 359 199 117 126 229 219 158 203 194 213 242 230 184 239 230 221 206 162 171 168 144 112 9 17 23 25 22 14 17 27 27 22 28 36 39 40 39 39 53 159 173 186 195 199 207 211 213 215 216 218 221 223 224 225 225 224 225 225 225 226 229 232 234 236 237 239 242 245 245 243 240 236 231 225 216
285 274 289 139 260 320 1 271 237 125 82 68 131 110 33 281 255 204 192 219 226 233 235 209 226 224 220 202 167 170 160 155 161 124 59 29 19 15 15 14 21 26 21 22 32 39 43 44 44 40 61 138 170 196 205 210 213 216 219 219 222 226 228 229 231 232 232 231 231 231 231 231 233 234 236 238 241 244 246 248 247 245 242 237 229 221
96 241 262 309 304 274 289 10 292 220 119 159 196 181 140 95 289 233 164 69 243 212 183 208 235 222 157 155 184 163 154 168 168 139 150 290 22 28 24 8 13 27 23 18 23 33 40 42 45 46 46 59 78 149 205 209 213 217 218 219 224 229 231 233 235 236 237 238 238 237 236 236 235 235 236 238 242 245 248 250 250 248 246 241 234 225
89 177 246 296 299 269 305 36 331 311 356 271 244 223 186 167 198 225 215 153 289 240 187 192 237 230 108 159 208 155 144 165 174 190 219 119 57 41 30 12 14 29 28 23 21 30 40 39 41 45 48 51 54 53 60 120 205 220 220 222 228 231 234 237 240 240 241 242 242 241 240 240 239 238 239 240 241 244 247 248 249 250 247 243 236 228
121 131 230 263 276 286 320 345 273 263 231 99 321 271 173 178 202 233 236 198 174 208 107 113 246 238 85 117 222 125 122 158 201 240 241 106 71 52 39 26 28 37 38 32 29 35 42 41 42 44 47 49 49 49 50 52 54 56 58 232 238 239 241 246 246 246 246 245 245 246 245 245 244 243 243 243 243 244 246 246 247 248 248 245 239 231
140 140 251 263 287 300 300 105 138 206 173 159 23 78 177 237 217 252 261 177 202 192 153 200 241 191 120 30 7 115 130 191 219 241 247 72 79 75 55 40 36 40 42 42 41 44 46 47 47 45 44 43 43 45 46 47 50 52 52 52 48 24 292 263 257 256 254 251 251 252 251 250 250 248 246 247 247 248 249 248 247 247 247 245 240 232
226 203 220 268 296 289 261 200 188 196 183 224 335 61 251 119 103 115 117 150 226 209 184 233 244 165 129 54 148 178 29 181 185 209 238 69 83 78 59 49 43 40 41 41 37 39 44 47 48 48 46 45 42 41 41 42 43 45 46 47 46 45 39 15 293 270 263 259 258 257 256 256 254 252 251 251 251 252 253 252 250 249 247 244 240 233
240 191 190 238 260 255 245 249 259 260 246 286 276 209 213 127 130 173 159 187 223 195 183 225 242 128 139 173 199 208 320 203 190 177 155 130 108 85 70 60 49 44 43 39 34 33 37 41 46 48 47 47 46 42 39 38 37 37 38 37 38 39 40 40 35 359 284 269 266 264 263 263 261 259 258 257 257 257 256 256 255 253 250 246 239 230
158 209 219 230 248 254 255 260 320 11 258 252 255 237 215 145 161 158 155 202 206 175 196 212 236 201 181 187 208 214 202 204 202 179 148 143 146 127 101 86 70 61 52 44 38 34 33 32 33 34 35 36 38 38 36 34 32 28 26 25 25 25 26 29 32 31 16 309 277 271 270 269 269 268 267 266 265 261 258 258 257 254 249 243 234 226
130 242 216 205 242 256 266 259 133 171 255 256 264 260 237 205 181 188 220 211 135 197 235 199 188 224 203 195 215 217 207 211 216 208 175 148 144 138 122 109 93 77 60 51 45 35 30 28 23 20 20 20 22 24 25 25 21 17 14 12 11 12 14 15 18 21 21 8 307 277 275 276 277 276 274 272 269 265 261 257 253 249 244 239 237 234
174 247 188 188 244 242 237 244 196 208 247 244 247 256 252 235 206 211 232 206 168 229 249 178 187 218 213 209 227 225 212 207 206 206 172 131 129 135 134 123 101 81 63 50 42 32 25 21 15 10 8 8 9 10 11 11 9 6 3 2 1 2 3 4 5 6 5 2 348 316 295 288 286 284 281 277 273 270 266 258 249 247 245 242 245 240
214 254 154 182 259 254 237 237 189 212 244 244 240 241 240 244 236 234 244 223 209 244 273 150 211 227 210 216 241 246 171 185 187 188 160 139 136 142 141 129 107 89 73 54 41 33 22 12 7 4 1 1 2 2 0 359 357 354 352 352 353 353 353 354 355 355 353 351 345 337 325 311 300 294 287 280 274 271 269 262 257 257 253 246 241 233
238 268 107 140 261 260 248 246 225 224 240 249 250 247 243 247 243 242 248 231 232 261 267 202 234 247 233 239 261 353 74 150 195 181 160 142 148 154 143 125 109 83 63 53 41 31 20 8 2 358 356 354 352 351 349 347 345 344 343 343 343 342 344 345 345 344 343 341 337 335 329 320 311 300 288 278 270 265 262 260 259 258 255 247 238 229
208 232 105 146 260 254 228 244 251 252 257 254 249 245 246 243 234 228 225 201 210 239 241 226 239 254 247 247 254 242 232 233 209 172 149 146 165 162 135 111 101 70 45 34 22 13 8 360 354 348 342 338 338 340 342 341 338 336 336 335 333 333 334 336 336 334 332 329 329 328 324 316 310 302 290 276 267 262 256 252 251 251 248 243 236 228
186 224 189 195 257 259 221 242 276 312 286 262 237 228 241 239 231 228 222 208 207 220 232 235 246 282 316 270 251 229 214 221 195 149 141 157 172 168 142 120 104 69 38 14 1 353 346 342 334 327 323 322 326 330 333 334 332 330 330 329 328 327 327 326 325 323 321 319 317 315 314 310 303 297 290 278 265 258 252 246 242 242 242 239 233 224
172 233 231 200 244 263 335 39 355 268 259 258 114 226 249 248 245 244 243 245 234 234 262 272 278 316 311 243 232 163 122 119 131 119 212 189 187 188 175 167 172 124 15 349 347 337 329 323 315 315 318 319 321 323 326 328 326 325 325 325 323 322 320 317 314 313 312 311 309 305 304 301 295 292 291 284 267 251 244 239 237 239 240 237 229 217
173 201 212 196 232 262 40 64 237 243 254 310 19 286 252 257 259 251 259 360 348 305 296 287 279 278 211 169 111 91 79 5 277 247 247 220 205 197 187 202 229 273 347 339 338 330 323 318 315 313 312 313 314 314 316 319 320 319 318 318 316 314 312 310 307 305 303 302 301 300 299 297 294 292 292 287 272 250 238 235 235 237 237 233 224 213
187 183 181 176 191 210 155 184 211 271 315 306 309 327 261 270 284 224 175 51 18 340 308 304 323 16 67 85 75 57 309 299 277 168 172 193 202 205 214 245 308 351 340 329 324 319 315 312 311 309 309 310 310 308 308 313 316 315 312 310 308 304 303 302 299 296 294 292 293 295 297 297 295 293 291 288 275 256 242 235 233 234 233 227 219 210
186 171 176 207 202 181 213 218 235 314 308 278 269 9 329 295 4 303 216 61 22 353 350 15 20 22 15 22 43 356 292 278 117 101 98 120 165 208 247 277 305 311 307 303 301 302 304 306 307 306 307 307 304 304 308 313 316 314 309 307 304 299 295 291 288 287 286 286 287 289 291 292 291 290 289 284 275 261 248 237 231 232 230 221 213 207
173 184 186 217 217 156 223 256 262 276 280 254 206 347 301 237 248 288 237 118 45 11 357 8 17 17 8 11 17 346 305 248 167 108 61 38 34 15 308 301 303 300 296 296 299 299 299 302 303 303 303 299 298 302 308 311 313 310 304 300 297 293 291 285 282 283 282 283 284 284 283 284 284 284 284 280 274 264 252 241 231 228 225 218 209 202
105 51 145 210 230 164 212 247 238 229 248 265 267 312 313 240 210 217 229 198 81 16 347 349 6 8 4 6 10 351 335 293 239 314 19 11 358 350 330 313 307 303 298 297 298 296 295 297 298 298 295 290 290 299 306 309 309 306 299 295 292 289 286 281 281 282 281 281 281 279 278 278 278 278 278 275 270 261 250 240 227 221 218 211 200 191
105 79 138 222 232 194 209 242 246 238 244 277 283 293 314 167 177 218 242 224 40 348 330 334 348 356 3 359 2 340 306 294 298 323 343 346 327 309 299 296 298 299 299 297 297 296 296 295 293 291 289 287 289 298 304 306 305 300 293 292 290 286 282 281 283 284 282 280 278 275 274 274 273 274 274 272 267 256 244 233 222 214 205 194 184 175
105 102 188 235 239 215 219 243 263 259 239 270 293 302 136 162 200 238 258 330 342 314 306 283 315 333 343 290 264 262 281 279 292 308 312 309 301 289 279 278 280 284 285 286 290 294 291 286 285 284 284 288 293 297 301 303 301 294 291 290 286 281 280 282 285 286 284 281 279 277 275 273 270 271 272 268 259 246 236 226 214 201 187 175 167 159
29 356 228 217 251 236 213 242 283 288 170 95 333 332 168 205 234 255 292 305 286 286 283 241 249 264 259 260 256 259 276 277 273 282 289 292 293 290 284 278 271 272 275 277 284 287 281 275 277 278 282 290 294 294 297 298 293 289 290 288 282 281 281 282 283 284 282 281 279 277 277 276 274 271 268 259 245 233 221 209 197 184 171 162 153 147
76 300 266 212 228 273 211 217 274 285 124 49 3 357 350 285 312 321 316 297 269 273 277 257 234 227 242 264 266 262 271 279 277 273 274 278 281 282 282 279 270 267 269 270 275 280 276 270 269 269 276 286 289 289 291 289 284 283 285 282 281 282 282 280 279 279 279 278 277 275 276 276 272 266 255 240 225 211 195 183 174 165 158 153 146 142
201 234 289 270 226 245 218 199 235 43 100 49 353 324 284 278 322 333 321 308 291 283 278 269 264 255 250 277 287 285 280 279 280 281 280 280 280 278 279 279 276 274 271 267 270 277 275 269 268 271 278 283 286 287 287 283 279 280 280 279 280 282 280 277 277 278 278 276 274 275 274 269 260 246 228 212 198 186 174 165 158 152 149 146 142 140
305 13 304 281 249 258 269 271 290 303 308 337 309 288 287 300 313 317 310 298 290 290 289 292 302 304 299 290 288 287 285 282 284 288 288 287 287 284 282 282 281 280 278 274 276 281 279 271 269 273 277 282 286 288 287 283 281 281 280 279 280 280 278 276 277 276 275 273 273 273 267 251 232 213 199 188 177 165 157 150 146 144 142 141 140 140
327 33 270 262 287 299 284 268 275 289 296 301 288 272 279 290 298 307 306 290 284 293 297 293 293 295 299 300 292 283 282 284 288 292 290 289 290 288 286 285 282 282 282 281 283 288 289 284 281 280 277 281 287 290 291 290 286 283 282 282 282 280 277 275 273 271 269 269 268 261 238 204 182 173 168 163 156 149 145 143 142 140 139 138 137 134
318 53 274 270 289 297 283 288 309 302 302 308 307 297 290 286 287 295 297 288 290 297 298 294 288 285 284 284 279 277 278 280 284 286 284 282 284 284 285 285 283 283 283 283 285 291 293 291 289 286 282 284 289 293 295 295 291 287 285 285 283 280 277 273 268 265 263 260 248 211 174 155 145 141 139 138 138 139 139 141 141 139 138 136 132 130
357 22 301 277 268 271 278 292 299 297 295 297 295 293 297 302 301 297 289 285 287 288 287 284 283 285 284 279 276 275 275 273 271 271 273 275 275 276 278 279 278 279 280 281 284 289 291 289 286 284 282 284 289 294 298 298 295 290 288 288 285 280 276 270 263 256 244 213 166 148 144 139 135 133 132 134 137 140 143 143 141 138 137 135 132 132
282 285 291 293 291 287 284 288 295 298 297 292 288 287 285 288 295 295 292 288 284 284 285 284 280 278 277 278 278 276 274 273 269 268 272 275 275 277 279 279 280 281 281 284 287 289 287 284 281 279 279 282 289 296 299 299 300 303 309 306 294 281 268 246 206 164 143 135 131 130 130 130 130 131 132 134 136 139 140 139 135 132 131 131 130 129
253 285 294 297 296 294 296 304 309 308 302 296 296 298 294 287 287 289 289 288 284 282 284 284 285 284 280 274 270 268 271 275 274 275 278 278 278 281 281 282 284 284 284 287 289 286 283 278 274 275 277 280 287 295 296 296 343 15 8 357 343 146 133 125 119 116 116 119 121 123 125 125 126 128 126 124 126 128 127 126 126 126 126 126 126 124
272 312 322 304 296 295 294 299 302 298 291 288 290 293 295 292 286 282 282 284 283 282 281 278 279 283 283 278 269 261 262 270 273 275 278 277 277 279 279 281 283 283 285 288 286 283 282 278 273 274 273 274 284 288 267 143 95 67 63 71 86 103 112 113 112 111 113 116 118 121 122 121 121 122 121 122 124 125 123 121 122 124 125 125 126 128